Flag for Germany Weather past 2 weeks in Jena, Thuringia, Germany

Now
86 °F

Sunny.


Feels Like: 85 °F
Forecast: 68 / 91 °F
Wind: 12 mph from East

Location: Erfurt-Bindersleben

Current Time: Jul 2, 2015 at 7:15:09 PM

Latest Report: Jul 2, 2015 at 6:50 PM


Visibility: 10 mi

Pressure: 30.18 "Hg

Humidity: 35%

Dew point: 55 °F

Location of JenaLocation

Historic Weather in Jena — Graph

°F

Jena temperature yesterday

Maximum temperature yesterday: 82 °F (at 4:20 PM)
Minimum temperature yesterday: 59 °F (at 5:20 AM)
Average temperature yesterday: 72 °F

Past Weeks' High & Low Weather Summary

 TemperatureHumidityPressure
High88 °F (Jul 2, 1:50 PM)100% (Jun 18, 6:50 AM)30.24 "Hg (Jun 18, 6:50 AM)
Low43 °F (Jun 21, 3:20 AM)31% (Jul 2, 2:50 PM)29.65 "Hg (Jun 23, 12:50 AM)
Average61 °F69%30.07 "Hg
* Reported Jun 17 6:20 PM — Jul 2 6:20 PM, Jena, Weather by CustomWeather, © 2015

Note: Actual official high and low records may vary slightly from our data, if they occured in-between our weather recording intervals... More about our weather records

Advertising

Jena weather history for previous 24 hours

 ConditionsComfort  
Time TempWeatherWind HumidityBarometerVisibility
6:20 PM
Thu, Jul 2
86 °FSunny.13 mph35%30.18 "Hg10 mi
5:50 PM86 °FSunny.13 mph35%30.18 "Hg10 mi
5:20 PM86 °FSunny.13 mph33%30.18 "Hg10 mi
4:50 PM88 °FSunny.14 mph31%30.18 "Hg10 mi
4:20 PM88 °FSunny.16 mph33%30.18 "Hg10 mi
3:50 PM88 °FSunny.14 mph33%30.18 "Hg10 mi
3:20 PM88 °FSunny.12 mph33%30.18 "Hg10 mi
2:50 PM88 °FSunny.12 mph31%30.18 "Hg10 mi
2:20 PM88 °FSunny.10 mph33%30.18 "Hg10 mi
1:50 PM88 °FSunny.9 mph33%30.18 "Hg10 mi
1:20 PM86 °FSunny.8 mph33%30.21 "Hg10 mi
12:50 PM84 °FSunny.7 mph37%30.21 "Hg10 mi
12:20 PM84 °FSunny.8 mph37%30.21 "Hg10 mi
11:50 AM82 °FSunny.7 mph45%30.21 "Hg10 mi
11:20 AM81 °FSunny.7 mph48%30.21 "Hg10 mi
10:50 AM79 °FSunny.7 mph51%30.21 "Hg10 mi
10:20 AM75 °FSunny.7 mph57%30.21 "Hg10 mi
9:50 AM73 °FSunny.6 mph57%30.21 "Hg10 mi
9:20 AM72 °FSunny.5 mph61%30.21 "Hg10 mi
8:50 AM70 °FSunny.5 mph60%30.21 "Hg10 mi
8:20 AM70 °FSunny.1 mph60%30.21 "Hg10 mi
7:50 AM68 °FSunny.1 mph64%30.21 "Hg10 mi
7:20 AM66 °FSunny.1 mph68%30.21 "Hg10 mi
6:50 AM64 °FSunny.1 mph68%30.21 "Hg10 mi
6:20 AM61 °FSunny.2 mph77%30.21 "Hg10 mi
5:50 AM61 °FClear.2 mph72%30.21 "Hg10 mi
5:20 AM63 °FClear.1 mph68%30.18 "Hg10 mi
4:50 AM63 °FClear.2 mph68%30.18 "Hg10 mi
4:20 AM63 °FClear.2 mph68%30.18 "Hg10 mi
3:50 AM64 °FClear.6 mph64%30.18 "Hg10 mi
3:20 AM64 °FClear.5 mph64%30.18 "Hg10 mi
2:50 AM64 °FClear.6 mph68%30.18 "Hg10 mi
2:20 AM66 °FClear.5 mph64%30.18 "Hg10 mi
1:50 AM68 °FClear.5 mph60%30.18 "Hg10 mi
1:20 AM68 °FClear.6 mph60%30.18 "Hg10 mi
12:50 AM70 °FClear.5 mph53%30.18 "Hg10 mi
11:50 PM
Wed, Jul 1
72 °FClear.5 mph50%30.18 "Hg10 mi
11:20 PM72 °FClear.6 mph50%30.18 "Hg10 mi
10:50 PM72 °FClear.2 mph53%30.18 "Hg10 mi
10:20 PM72 °FSunny.3 mph50%30.18 "Hg10 mi
9:50 PM73 °FSunny.5 mph47%30.18 "Hg10 mi
9:20 PM75 °FSunny.6 mph44%30.15 "Hg10 mi
8:50 PM77 °FSunny.9 mph39%30.15 "Hg10 mi
8:20 PM77 °FSunny.10 mph39%30.15 "Hg10 mi
7:50 PM79 °FSunny.13 mph37%30.15 "Hg10 mi
7:20 PM79 °FSunny.14 mph37%30.15 "Hg10 mi
Weather by CustomWeather, © 2015

See weather overviewHow to use our weather pages